SCP
0 0 0 0 0 0 0 0 0 0 0 0 0 0 0 0 0 0 0 0 0 0 0 0 0 0 0 0 0 0 0 0 0 0 0 0 0 0 0 0 0 0 0
0 0 0 0 0 0 0 0 0 0 0 0 0 0 0 0 0 0 0 0 0 0 0 0 0 0 0 0 0 0 0 0 0 0 0 0 0 0 0 0 0 0 0
0 0 0 0 0 0 0 0 0 0 0 0 0 0 0 0 0 0 0 0 0 0 0 0 0 0 0 0 0 0 0 0 0 0 0 0 0 0 0 0 0 0 0
0 0 0 0 0 0 0 0 0 0 0 0 0 0 0 0 0 0 0 0 0 0 0 -0 0 0 0 0 0 0 0 0 0 0 0 0 0 0 0 -0 -0 0 0
0 0 0 0 0 0 0 0 0 0 0 0 0 0 0 0 0 0 0 0 0 0 0 0 -0 0 0 0 0 0 0 0 0 0 0 0 0 0 0 0 0 0 0
0 0 0 0 0 0 0 0 0 0 0 0 0 0 0 0 0 -0 0 0 0 0 0 0 0 0 0 0 0 0 0 0 0 0 0 0 0 0 0 0 0 0 0
0 0 0 0 0 0 0 0 0 0 0 0 0 0 0 0 -0 -0 -0 0 0 0 0 0 0 0 0 0 0 0 0 0 0 0 0 0 0 0 0 0 0 0 0
0 0 0 0 0 0 0 0 0 0 0 0 0 0 0 0 -0 -0 -0 0 0 0 0 0 0 0 0 0 0 0 0 0 0 0 0 0 0 0 0 0 0 0 0
0 0 0 0 0 0 0 0 0 0 0 0 0 0 0 0 -0 -0 -0 0 0 0 0 0 0 0 0 0 0 0 0 0 0 0 0 0 0 0 0 0 0 0 0
0 0 0 0 0 0 0 0 0 0 0 0 0 0 0 0 -0 -0 -0 0 0 0 0 0 0 0 0 0 0 0 0 0 0 -0 -0 0 0 0 0 0 0 0 0
0 0 0 0 0 0 0 0 0 0 0 0 0 0 0 0 0 -0 -0 0 0 0 0 0 0 0 0 0 0 0 0 0 0 -0 -0 -0 0 0 0 0 0 0 0
0 0 0 0 0 0 0 0 0 0 0 0 0 0 0 0 0 0 -0 -0 -0 0 0 0 0 0 0 0 0 0 0 0 0 0 0 0 0 0 0 0 0 0 0
0 0 0 0 0 0 0 0 0 0 0 0 0 0 0 0 0 0 0 -0 0 0 0 0 0 0 0 0 0 0 0 0 0 0 0 0 -0 0 0 0 0 0 0
0 0 0 0 0 0 0 0 0 0 0 0 0 0 0 0 0 0 -0 -0 0 0 0 0 0 0 0 0 0 0 0 0 0 0 0 0 0 0 0 0 0 0 0
0 0 0 0 0 0 0 0 0 0 0 0 0 0 0 0 0 -0 -0 0 0 0 0 0 0 0 0 0 0 0 0 0 0 0 0 0 0 0 0 0 0 0 0
0 0 0 0 0 0 0 0 0 0 0 0 0 0 0 0 0 0 0 0 -0 -0 0 0 0 0 0 0 0 0 0 0 0 0 0 0 0 0 0 0 0 0 0
0 0 0 0 0 0 0 0 0 0 0 0 0 0 0 0 0 0 0 0 -0 -0 -0 -0 0 0 0 0 0 0 0 0 0 0 0 0 0 0 0 0 0 0 0
0 0 0 0 0 0 0 0 0 0 0 0 0 0 0 0 0 0 0 0 0 -0 -0 0 -0 0 0 0 0 0 0 0 0 0 0 0 0 0 0 0 0 0 0
0 0 0 0 0 0 0 0 0 0 0 0 0 0 0 0 0 0 0 0 0 0 0 -0 0 0 0 0 0 0 0 0 0 0 0 0 0 0 0 0 0 0 0
0 0 0 0 0 0 0 0 0 0 0 0 0 0 0 0 0 0 0 0 0 0 0 0 0 0 0 0 0 0 0 0 0 0 0 0 0 0 0 0 0 0 0
0 0 0 0 0 0 0 0 0 0 0 0 0 0 0 0 0 0 0 0 0 0 0 -0 0 0 0 0 0 0 0 0 0 0 0 0 0 0 0 0 0 0 0
0 0 0 0 0 0 0 0 0 0 0 0 0 0 0 0 0 0 0 0 0 0 0 0 0 0 0 0 0 0 0 0 0 0 0 0 0 0 0 0 0 0 0
0 0 0 0 0 0 0 0 0 0 0 0 0 0 0 0 0 0 0 0 0 0 0 0 0 0 0 0 0 0 0 0 0 0 0 0 0 0 0 0 0 0 0
0 0 0 0 0 0 0 0 0 0 0 0 0 0 0 0 0 0 0 0 0 0 0 0 0 0 0 0 0 0 0 0 0 0 0 0 0 0 0 0 0 0 0
0 0 0 0 0 0 0 0 0 0 0 0 0 0 0 0 0 0 0 0 0 0 0 0 0 0 0 0 0 0 0 0 0 0 0 0 0 0 0 0 0 0 0
0 0 0 0 0 0 0 0 0 0 0 0 0 0 0 0 0 0 0 0 0 0 0 0 0 0 0 0 0 0 0 0 0 0 0 0 0 0 0 0 0 0 0
Wind_Speed_500mb
36 39 40 42 45 46 46 45 43 42 40 40 43 46 48 48 44 44 48 51 56 50 48 49 52 52 33 14 11 15 18 17 23 18 18 17 20 21 19 16 11 5 8
41 43 44 45 46 47 48 49 49 46 41 38 38 40 42 45 45 43 44 48 52 57 46 47 48 54 49 27 15 16 23 28 34 32 29 23 23 26 26 25 19 14 11
41 39 39 39 42 46 49 50 48 45 43 38 35 35 37 38 41 42 38 41 45 50 52 40 44 49 54 47 26 13 9 10 13 12 14 14 18 20 22 23 20 17 14
31 31 35 39 43 47 50 52 51 47 42 36 33 31 32 32 33 38 38 36 39 43 49 45 34 42 47 53 36 24 8 3 8 8 8 8 10 11 12 11 10 10 10
22 27 32 38 42 46 49 50 48 45 40 34 31 28 27 28 29 32 34 34 35 38 43 47 42 29 33 46 41 28 18 10 3 7 7 6 7 8 5 6 4 2 3
19 22 29 36 42 46 47 48 48 43 38 33 28 26 25 26 28 28 28 29 31 34 40 43 47 44 30 32 42 33 24 19 12 16 10 6 7 5 3 3 2 1 5
14 21 27 33 39 44 46 46 46 44 38 33 29 26 23 24 30 33 26 20 23 28 32 37 42 47 43 29 33 34 26 23 21 16 13 10 8 4 4 1 4 4 5
11 18 24 30 36 41 42 44 44 44 41 38 31 28 24 24 27 35 30 20 18 18 23 29 34 42 45 42 27 32 33 26 25 21 17 16 12 9 7 5 3 4 4
7 13 19 27 33 37 41 43 46 44 41 38 33 30 28 25 26 34 34 25 25 20 17 21 28 33 39 43 32 23 27 29 24 23 20 19 19 17 12 6 7 9 12
2 8 16 24 29 35 39 42 44 46 44 41 36 30 31 29 26 33 34 28 25 24 17 17 20 25 32 38 36 31 25 26 23 22 21 22 22 21 16 10 9 10 13
4 4 12 18 25 32 35 38 42 45 45 45 42 37 32 31 26 33 36 31 29 27 23 21 18 19 26 31 34 27 27 23 20 19 21 24 25 23 19 15 13 13 16
7 2 8 13 20 26 30 34 39 42 45 47 48 46 45 40 32 32 36 33 31 28 24 25 22 16 21 25 27 21 19 19 20 20 20 21 25 26 24 19 16 17 17
11 4 4 9 15 21 26 30 34 38 42 46 49 51 52 50 44 41 37 37 31 29 22 23 22 18 12 15 22 22 20 20 20 20 20 20 24 27 25 19 16 16 19
15 8 2 4 9 16 22 27 30 34 37 42 47 51 54 54 59 62 54 43 31 29 27 21 19 13 8 11 14 19 18 20 21 21 18 19 20 23 24 20 12 13 18
20 12 5 2 6 11 16 22 26 30 34 38 42 46 53 56 56 50 50 48 40 38 30 17 13 7 1 3 9 16 19 15 15 19 20 20 21 22 23 20 13 11 17
23 16 10 6 5 8 12 16 21 25 26 28 32 37 41 40 43 48 50 46 34 31 14 11 7 3 2 6 5 10 17 19 17 20 22 21 20 21 22 20 17 11 15
27 20 15 12 9 10 13 16 13 16 23 26 27 30 34 42 40 43 48 53 41 25 18 6 6 4 3 3 5 4 11 15 18 18 19 21 18 17 19 22 21 13 12
30 24 20 18 16 13 14 18 22 25 23 20 23 27 30 34 39 43 49 47 40 26 20 13 5 5 3 2 3 2 4 11 15 18 20 18 19 18 18 21 19 15 10
35 28 25 24 22 19 18 19 22 26 27 26 24 23 27 29 31 38 43 51 52 44 28 18 10 3 2 3 4 5 3 3 8 11 20 18 17 17 16 16 17 14 10
38 34 29 28 28 26 24 24 24 26 27 29 27 28 29 28 30 35 41 44 48 48 41 25 16 7 4 4 6 6 7 5 2 5 12 19 19 16 17 16 14 13 12
40 38 33 32 31 31 31 31 30 29 28 28 27 27 31 32 32 31 34 39 41 45 46 38 24 15 5 7 10 10 7 9 6 2 4 12 19 15 15 15 13 12 10
42 42 38 35 35 37 35 35 36 34 31 30 27 24 26 26 27 28 26 30 34 37 41 42 36 25 15 6 11 14 13 12 12 7 4 6 13 18 12 14 14 10 7
45 43 43 40 38 40 40 38 38 38 36 32 29 27 24 23 24 26 27 25 26 29 31 34 37 35 25 15 10 15 18 17 16 15 10 8 3 10 11 9 14 12 6
46 45 44 43 42 42 41 40 40 40 39 35 31 29 27 25 23 24 25 26 24 24 27 28 29 32 32 26 16 13 19 23 21 21 18 14 7 4 10 8 8 12 7
46 47 46 44 43 42 42 42 41 40 38 36 33 31 28 28 25 24 26 26 26 24 24 25 26 26 28 29 26 17 16 24 27 25 24 20 14 7 4 5 7 8 8
46 48 47 46 45 43 42 41 40 39 37 35 35 33 31 30 28 26 27 29 29 26 24 23 24 24 24 26 28 26 18 19 30 32 30 26 21 15 9 4 3 6 9
Wind_Direction_500mb
326 327 327 328 325 324 323 322 321 323 328 336 346 354 360 2 359 2 6 13 12 11 4 8 5 12 5 309 290 261 250 241 248 240 232 220 221 219 214 218 220 269 298
322 327 329 330 331 332 329 321 313 307 311 319 328 340 351 358 359 2 3 8 14 10 13 7 10 8 17 2 319 271 266 267 260 257 259 245 236 239 236 237 240 252 273
323 332 339 344 348 347 345 341 335 320 303 300 309 321 336 348 355 360 3 5 12 13 11 14 13 10 9 10 4 343 296 254 249 239 221 225 228 226 228 232 237 245 251
329 342 348 348 351 351 348 344 343 338 325 305 300 308 320 334 346 354 2 1 6 14 16 15 19 16 9 7 7 11 344 302 272 208 197 195 211 211 211 212 226 244 249
335 349 352 352 354 355 351 347 345 345 339 326 308 302 310 321 339 349 357 359 360 8 18 19 16 16 18 14 9 20 30 30 358 120 120 148 163 152 165 167 158 259 234
338 357 360 356 357 358 354 351 349 348 345 339 326 318 313 318 322 332 350 358 356 0 9 19 16 15 20 22 15 22 32 36 50 72 85 106 115 122 143 117 103 41 101
345 6 4 359 1 0 358 355 354 355 351 347 341 334 326 320 316 337 335 354 355 354 1 9 16 17 17 28 19 16 28 31 37 55 75 78 75 63 45 48 45 36 85
3 12 5 3 6 4 2 2 3 3 360 355 349 343 342 332 327 351 325 342 342 352 354 2 9 14 14 15 21 19 20 27 33 41 50 51 41 27 22 38 44 34 52
20 15 9 8 9 7 8 10 10 10 11 8 1 351 347 348 337 353 348 336 334 349 343 351 0 11 13 12 18 23 13 19 27 26 31 36 29 28 28 44 122 99 99
51 21 15 14 12 12 13 15 16 17 16 15 11 1 349 346 352 359 355 342 339 336 338 345 359 7 15 12 16 16 18 11 18 22 27 31 29 33 41 68 99 109 124
163 40 25 18 12 17 17 17 21 22 24 23 20 11 356 346 350 4 2 345 339 333 333 332 358 5 14 16 17 23 12 11 13 20 23 30 30 40 45 66 78 80 74
180 98 37 20 16 17 19 22 23 23 25 26 24 22 18 9 1 354 357 353 344 327 324 322 345 5 11 13 19 23 11 20 20 19 22 30 35 41 42 54 67 81 71
190 177 50 18 15 13 16 23 23 23 21 20 20 18 17 15 13 6 355 343 335 329 316 308 324 346 8 8 20 24 24 27 20 20 19 25 30 36 44 37 59 68 67
196 198 176 14 13 10 8 15 18 18 19 16 11 13 11 10 14 3 355 349 331 312 294 296 306 329 355 10 22 35 36 29 24 25 22 22 26 31 38 43 63 78 77
202 209 218 296 357 3 6 6 10 10 12 11 6 5 3 6 6 356 352 345 339 321 301 283 279 285 258 70 38 46 45 35 28 25 25 24 26 29 30 40 52 82 98
209 215 224 250 311 343 1 2 360 1 4 5 2 357 358 358 355 358 355 352 354 343 330 262 258 268 258 68 56 46 53 48 42 33 29 22 22 26 27 35 45 71 103
215 221 232 251 279 310 336 345 357 355 352 356 358 355 354 356 359 358 3 4 356 0 13 341 259 243 201 75 103 22 28 44 46 35 26 21 19 19 25 33 43 54 100
219 229 241 253 271 292 316 328 334 341 349 359 356 355 355 357 3 3 9 11 18 13 14 21 340 278 264 133 123 152 29 17 32 32 29 23 18 18 23 34 37 43 78
223 228 243 255 266 280 296 311 320 327 335 343 351 352 351 359 0 6 7 16 21 21 20 22 22 331 289 195 183 193 192 4 29 33 25 22 27 23 19 27 32 32 44
224 232 240 254 265 275 286 296 305 313 324 332 341 342 348 354 359 7 9 13 19 24 23 22 24 14 268 236 214 212 200 217 301 13 27 27 24 26 17 19 25 32 35
229 234 241 252 265 276 282 290 296 304 312 321 329 334 338 347 353 355 4 9 11 17 25 24 21 15 344 243 229 233 225 209 215 232 345 13 25 24 27 16 13 26 30
238 245 247 254 263 271 279 282 288 294 302 308 316 321 325 333 339 346 353 3 6 6 14 24 25 16 4 309 240 226 230 234 231 238 275 336 10 21 20 20 11 16 19
241 247 255 260 265 270 274 279 282 288 294 298 304 309 312 318 327 335 342 347 359 1 359 8 17 21 12 350 301 244 229 233 230 231 237 244 327 2 20 9 15 5 10
247 253 258 262 265 269 273 276 277 280 285 289 294 298 301 305 313 321 326 333 336 346 351 349 356 6 12 7 340 288 243 230 233 232 230 234 221 321 360 357 345 358 358
253 259 262 266 268 271 273 273 274 276 278 282 287 289 290 294 299 305 309 314 321 326 331 339 338 345 354 358 357 329 277 240 231 233 234 229 216 222 294 354 320 348 352
255 260 264 265 267 270 272 272 272 272 274 277 280 282 284 285 288 292 296 300 303 310 312 314 325 326 336 343 346 346 316 263 234 231 232 230 217 212 243 271 319 312 334
Wind_Speed_850mb
36 39 40 42 45 46 46 45 43 42 40 40 43 46 48 48 44 44 48 51 56 50 48 49 52 52 33 14 11 15 18 17 23 18 18 17 20 21 19 16 11 5 8
41 43 44 45 46 47 48 49 49 46 41 38 38 40 42 45 45 43 44 48 52 57 46 47 48 54 49 27 15 16 23 28 34 32 29 23 23 26 26 25 19 14 11
41 39 39 39 42 46 49 50 48 45 43 38 35 35 37 38 41 42 38 41 45 50 52 40 44 49 54 47 26 13 9 10 13 12 14 14 18 20 22 23 20 17 14
31 31 35 39 43 47 50 52 51 47 42 36 33 31 32 32 33 38 38 36 39 43 49 45 34 42 47 53 36 24 8 3 8 8 8 8 10 11 12 11 10 10 10
22 27 32 38 42 46 49 50 48 45 40 34 31 28 27 28 29 32 34 34 35 38 43 47 42 29 33 46 41 28 18 10 3 7 7 6 7 8 5 6 4 2 3
19 22 29 36 42 46 47 48 48 43 38 33 28 26 25 26 28 28 28 29 31 34 40 43 47 44 30 32 42 33 24 19 12 16 10 6 7 5 3 3 2 1 5
14 21 27 33 39 44 46 46 46 44 38 33 29 26 23 24 30 33 26 20 23 28 32 37 42 47 43 29 33 34 26 23 21 16 13 10 8 4 4 1 4 4 5
11 18 24 30 36 41 42 44 44 44 41 38 31 28 24 24 27 35 30 20 18 18 23 29 34 42 45 42 27 32 33 26 25 21 17 16 12 9 7 5 3 4 4
7 13 19 27 33 37 41 43 46 44 41 38 33 30 28 25 26 34 34 25 25 20 17 21 28 33 39 43 32 23 27 29 24 23 20 19 19 17 12 6 7 9 12
2 8 16 24 29 35 39 42 44 46 44 41 36 30 31 29 26 33 34 28 25 24 17 17 20 25 32 38 36 31 25 26 23 22 21 22 22 21 16 10 9 10 13
4 4 12 18 25 32 35 38 42 45 45 45 42 37 32 31 26 33 36 31 29 27 23 21 18 19 26 31 34 27 27 23 20 19 21 24 25 23 19 15 13 13 16
7 2 8 13 20 26 30 34 39 42 45 47 48 46 45 40 32 32 36 33 31 28 24 25 22 16 21 25 27 21 19 19 20 20 20 21 25 26 24 19 16 17 17
11 4 4 9 15 21 26 30 34 38 42 46 49 51 52 50 44 41 37 37 31 29 22 23 22 18 12 15 22 22 20 20 20 20 20 20 24 27 25 19 16 16 19
15 8 2 4 9 16 22 27 30 34 37 42 47 51 54 54 59 62 54 43 31 29 27 21 19 13 8 11 14 19 18 20 21 21 18 19 20 23 24 20 12 13 18
20 12 5 2 6 11 16 22 26 30 34 38 42 46 53 56 56 50 50 48 40 38 30 17 13 7 1 3 9 16 19 15 15 19 20 20 21 22 23 20 13 11 17
23 16 10 6 5 8 12 16 21 25 26 28 32 37 41 40 43 48 50 46 34 31 14 11 7 3 2 6 5 10 17 19 17 20 22 21 20 21 22 20 17 11 15
27 20 15 12 9 10 13 16 13 16 23 26 27 30 34 42 40 43 48 53 41 25 18 6 6 4 3 3 5 4 11 15 18 18 19 21 18 17 19 22 21 13 12
30 24 20 18 16 13 14 18 22 25 23 20 23 27 30 34 39 43 49 47 40 26 20 13 5 5 3 2 3 2 4 11 15 18 20 18 19 18 18 21 19 15 10
35 28 25 24 22 19 18 19 22 26 27 26 24 23 27 29 31 38 43 51 52 44 28 18 10 3 2 3 4 5 3 3 8 11 20 18 17 17 16 16 17 14 10
38 34 29 28 28 26 24 24 24 26 27 29 27 28 29 28 30 35 41 44 48 48 41 25 16 7 4 4 6 6 7 5 2 5 12 19 19 16 17 16 14 13 12
40 38 33 32 31 31 31 31 30 29 28 28 27 27 31 32 32 31 34 39 41 45 46 38 24 15 5 7 10 10 7 9 6 2 4 12 19 15 15 15 13 12 10
42 42 38 35 35 37 35 35 36 34 31 30 27 24 26 26 27 28 26 30 34 37 41 42 36 25 15 6 11 14 13 12 12 7 4 6 13 18 12 14 14 10 7
45 43 43 40 38 40 40 38 38 38 36 32 29 27 24 23 24 26 27 25 26 29 31 34 37 35 25 15 10 15 18 17 16 15 10 8 3 10 11 9 14 12 6
46 45 44 43 42 42 41 40 40 40 39 35 31 29 27 25 23 24 25 26 24 24 27 28 29 32 32 26 16 13 19 23 21 21 18 14 7 4 10 8 8 12 7
46 47 46 44 43 42 42 42 41 40 38 36 33 31 28 28 25 24 26 26 26 24 24 25 26 26 28 29 26 17 16 24 27 25 24 20 14 7 4 5 7 8 8
46 48 47 46 45 43 42 41 40 39 37 35 35 33 31 30 28 26 27 29 29 26 24 23 24 24 24 26 28 26 18 19 30 32 30 26 21 15 9 4 3 6 9
Wind_Direction_850mb
326 327 327 328 325 324 323 322 321 323 328 336 346 354 360 2 359 2 6 13 12 11 4 8 5 12 5 309 290 261 250 241 248 240 232 220 221 219 214 218 220 269 298
322 327 329 330 331 332 329 321 313 307 311 319 328 340 351 358 359 2 3 8 14 10 13 7 10 8 17 2 319 271 266 267 260 257 259 245 236 239 236 237 240 252 273
323 332 339 344 348 347 345 341 335 320 303 300 309 321 336 348 355 360 3 5 12 13 11 14 13 10 9 10 4 343 296 254 249 239 221 225 228 226 228 232 237 245 251
329 342 348 348 351 351 348 344 343 338 325 305 300 308 320 334 346 354 2 1 6 14 16 15 19 16 9 7 7 11 344 302 272 208 197 195 211 211 211 212 226 244 249
335 349 352 352 354 355 351 347 345 345 339 326 308 302 310 321 339 349 357 359 360 8 18 19 16 16 18 14 9 20 30 30 358 120 120 148 163 152 165 167 158 259 234
338 357 360 356 357 358 354 351 349 348 345 339 326 318 313 318 322 332 350 358 356 0 9 19 16 15 20 22 15 22 32 36 50 72 85 106 115 122 143 117 103 41 101
345 6 4 359 1 0 358 355 354 355 351 347 341 334 326 320 316 337 335 354 355 354 1 9 16 17 17 28 19 16 28 31 37 55 75 78 75 63 45 48 45 36 85
3 12 5 3 6 4 2 2 3 3 360 355 349 343 342 332 327 351 325 342 342 352 354 2 9 14 14 15 21 19 20 27 33 41 50 51 41 27 22 38 44 34 52
20 15 9 8 9 7 8 10 10 10 11 8 1 351 347 348 337 353 348 336 334 349 343 351 0 11 13 12 18 23 13 19 27 26 31 36 29 28 28 44 122 99 99
51 21 15 14 12 12 13 15 16 17 16 15 11 1 349 346 352 359 355 342 339 336 338 345 359 7 15 12 16 16 18 11 18 22 27 31 29 33 41 68 99 109 124
163 40 25 18 12 17 17 17 21 22 24 23 20 11 356 346 350 4 2 345 339 333 333 332 358 5 14 16 17 23 12 11 13 20 23 30 30 40 45 66 78 80 74
180 98 37 20 16 17 19 22 23 23 25 26 24 22 18 9 1 354 357 353 344 327 324 322 345 5 11 13 19 23 11 20 20 19 22 30 35 41 42 54 67 81 71
190 177 50 18 15 13 16 23 23 23 21 20 20 18 17 15 13 6 355 343 335 329 316 308 324 346 8 8 20 24 24 27 20 20 19 25 30 36 44 37 59 68 67
196 198 176 14 13 10 8 15 18 18 19 16 11 13 11 10 14 3 355 349 331 312 294 296 306 329 355 10 22 35 36 29 24 25 22 22 26 31 38 43 63 78 77
202 209 218 296 357 3 6 6 10 10 12 11 6 5 3 6 6 356 352 345 339 321 301 283 279 285 258 70 38 46 45 35 28 25 25 24 26 29 30 40 52 82 98
209 215 224 250 311 343 1 2 360 1 4 5 2 357 358 358 355 358 355 352 354 343 330 262 258 268 258 68 56 46 53 48 42 33 29 22 22 26 27 35 45 71 103
215 221 232 251 279 310 336 345 357 355 352 356 358 355 354 356 359 358 3 4 356 0 13 341 259 243 201 75 103 22 28 44 46 35 26 21 19 19 25 33 43 54 100
219 229 241 253 271 292 316 328 334 341 349 359 356 355 355 357 3 3 9 11 18 13 14 21 340 278 264 133 123 152 29 17 32 32 29 23 18 18 23 34 37 43 78
223 228 243 255 266 280 296 311 320 327 335 343 351 352 351 359 0 6 7 16 21 21 20 22 22 331 289 195 183 193 192 4 29 33 25 22 27 23 19 27 32 32 44
224 232 240 254 265 275 286 296 305 313 324 332 341 342 348 354 359 7 9 13 19 24 23 22 24 14 268 236 214 212 200 217 301 13 27 27 24 26 17 19 25 32 35
229 234 241 252 265 276 282 290 296 304 312 321 329 334 338 347 353 355 4 9 11 17 25 24 21 15 344 243 229 233 225 209 215 232 345 13 25 24 27 16 13 26 30
238 245 247 254 263 271 279 282 288 294 302 308 316 321 325 333 339 346 353 3 6 6 14 24 25 16 4 309 240 226 230 234 231 238 275 336 10 21 20 20 11 16 19
241 247 255 260 265 270 274 279 282 288 294 298 304 309 312 318 327 335 342 347 359 1 359 8 17 21 12 350 301 244 229 233 230 231 237 244 327 2 20 9 15 5 10
247 253 258 262 265 269 273 276 277 280 285 289 294 298 301 305 313 321 326 333 336 346 351 349 356 6 12 7 340 288 243 230 233 232 230 234 221 321 360 357 345 358 358
253 259 262 266 268 271 273 273 274 276 278 282 287 289 290 294 299 305 309 314 321 326 331 339 338 345 354 358 357 329 277 240 231 233 234 229 216 222 294 354 320 348 352
255 260 264 265 267 270 272 272 272 272 274 277 280 282 284 285 288 292 296 300 303 310 312 314 325 326 336 343 346 346 316 263 234 231 232 230 217 212 243 271 319 312 334